sat.trackr.live / text

‹ back to catalog

PRSC-S1

NORAD 65055 · 2025-164A

PAYLOAD ACTIVE UNKNOWN

§ Identity

Operator
Country
PAKI
Launch date
2025-07-31
Launch site
XICLF
Launch vehicle
Mass (kg)
RCS (m²)

Purposes: earth_obs

External: N2YO · Heavens-Above · Gunter

§ Orbital elements

Epoch: 2026-05-25T02:59:18.053664Z

Period
95.60 min
Inclination
41.1309°
Eccentricity
0.0006655
Mean motion
15.06206068 rev/d
Perigee alt
543.2 km
Apogee alt
552.4 km
Semi-major
6,925.9 km
B*
2.8531e-4
RAAN
57.6761°
Arg perigee
211.3434°
Mean anomaly
148.6984°
Rev number
4,495

§ Raw data

PRSC-S11 65055U 25164A   26145.12451451  .00004082  00000+0  28531-3 0  99952 65055  41.1309  57.6761 0006655 211.3434 148.6984 15.06206068 44959

JSON: /api/v1/satellites/65055 · /tle

For live sub-satellite position, see the globe view (requires WebGL).

§ Visibility from observer

Set your observer location to see the next 7 days of passes ≥ 10°. The values pass through the URL so the page stays shareable.

No JS? Fill the form by hand. The geolocation button needs JavaScript.

§ Radio — SatNOGS DB

ModeDescriptionDownlinkUplink
FM S-band telemetry 2.209 GHz

1 transmitter · refreshed weekly from db.satnogs.org